Location: ?????????
(41.2286°N, 23.0068°E)
Time: 08:33:57
(UTC+00:00)

CBERS-1 - Pass Details

Date: 08 November 2025
Orbit: 765 x 772 km, 98.8° (Epoch: 04 December)

Event Time Altitude Azimuth Distance (km) Brightness Sun altitude
Rises 04:29:52 0° 12° (NNE) 3,256 7.2 -7.6°
Reaches altitude 10° 04:32:11 10° 11° (NNE) 2,325 6.5 -7.1°
Maximum altitude 04:37:19 79° 286° (WNW) 790 4.0 -6.2°
Drops below altitude 10° 04:42:24 10° 200° (SSW) 2,306 6.5 -5.3°
Sets 04:44:41 0° 199° (SSW) 3,228 7.2 -4.9°
